#timestamp,LO_Frequency,Hit 
1616338815.5,286046997.0,N
1616338835.4,286046999.6,N
1616338855.2,286046999.1,N
1616338875.0,286046997.7,N
1616338875.9,286046997.7,N
1616338895.8,286046996.7,P
1616338915.6,286046998.8,N
1616338935.5,286046998.7,N
1616338955.3,286046998.1,N
1616338975.1,286046999.5,N
1616338995.8,286046999.0,N
1616339015.7,286046998.7,N
1616339035.5,286046998.8,N
1616339055.3,286046999.3,N
1616339075.2,286046996.7,P
1616339095.0,286047000.5,N
1616339095.9,286047000.5,N
1616339115.8,286046998.1,N
1616339135.6,286047000.9,N
1616339155.4,286047000.3,N
1616339175.3,286047000.7,N
1616339195.1,286047000.9,N
1616339196.0,286047000.9,N
1616339215.8,286046998.5,N
1616339235.7,286047000.7,N
1616339255.5,286047000.5,N
1616339275.3,286047000.9,N
1616339295.1,286046999.1,N
1616339315.9,286047000.7,N
1616339335.7,286047000.9,N
1616339355.5,286047000.6,N
1616339375.4,286047001.2,N
1616339395.2,286046998.5,N
1616339415.0,286046998.4,N
1616339415.9,286046998.4,N
1616339435.8,286047001.2,N
1616339455.6,286046998.9,N
1616339475.4,286046998.3,N
1616339495.3,286046998.1,N
1616339515.1,286046999.5,N
1616339535.8,286046999.6,N
1616339555.7,286046996.9,N
1616339575.5,286046998.8,N
1616339595.3,286046999.6,N
1616339615.2,286046999.5,N
1616339635.9,286046998.8,N
1616339655.7,286046997.7,N
1616339675.6,286046998.8,N
1616339695.4,286046997.2,N
1616339715.2,286046997.0,N
1616339735.1,286046997.2,N
1616339736.0,286046997.2,N
1616339755.8,286046999.1,N
1616339775.6,286046996.6,N
1616339795.5,286046997.0,N
1616339815.3,286046999.2,N
1616339835.1,286046997.8,N
1616339855.9,286046997.8,N
1616339875.7,286046997.7,N
1616339895.5,286046997.7,N
1616339915.4,286046997.1,N
1616339935.2,286046997.0,N
1616339955.0,286046996.6,P
1616339955.9,286046996.6,P
1616339975.8,286046998.1,N
1616339995.6,286046998.7,N
1616340015.4,286046998.8,N
1616340035.3,286046998.8,N
1616340055.1,286046998.8,N
1616340056.0,286046998.8,N
1616340075.8,286046999.1,N
1616340095.7,286046996.9,P
1616340115.5,286046998.3,N
1616340135.3,286047000.1,N
1616340155.2,286047000.4,N
1616340175.9,286047000.6,N
1616340195.7,286046998.2,N
1616340215.6,286046998.5,N
1616340235.4,286047000.2,N
1616340255.2,286047000.4,N
1616340275.1,286047000.7,N
1616340276.0,286047000.7,N
1616340295.8,286047001.1,N
1616340315.6,286046999.9,N
1616340335.5,286047000.8,N
1616340355.3,286047002.6,N
1616340375.1,286047000.5,N
1616340395.9,286046999.9,N
1616340415.7,286047004.4,P
1616340435.5,286047004.2,N
1616340455.4,286047001.7,N
1616340475.2,286047006.0,P
1616340495.0,286046999.8,N
1616340495.9,286046999.8,N
1616340515.8,286047002.6,N
1616340535.6,286047001.8,N
1616340555.4,286047002.6,N
1616340575.3,286047001.5,N
1616340595.1,286047004.4,N
1616340615.8,286047001.8,N
1616340635.7,286047002.0,N
1616340655.5,286047003.7,N
1616340675.3,286047004.1,N
1616340695.2,286047003.6,N
1616340715.9,286047001.8,N
1616340735.7,286047004.0,N
1616340755.6,286047003.9,N
1616340775.4,286047003.1,N
1616340795.2,286047004.2,N
1616340815.1,286047001.4,N
1616340816.0,286047001.4,N
1616340835.8,286047003.8,N
1616340855.6,286047001.3,N
1616340875.5,286047003.7,N
1616340895.3,286047001.3,N
1616340915.1,286047004.2,N
1616340935.9,286047003.6,N
1616340955.7,286047001.4,N
1616340975.5,286047003.5,N
1616340995.4,286047001.3,N
1616341015.2,286047003.1,N
1616341035.0,286047004.0,N
1616341035.9,286047004.0,P
1616341055.8,286047000.6,N
1616341075.6,286046999.7,N
1616341095.4,286046998.1,N
1616341115.3,286047001.0,N
1616341135.1,286046998.1,N
1616341136.0,286046998.1,N
1616341155.8,286047001.2,N
1616341175.7,286047002.7,N
1616341195.5,286046999.9,N
1616341215.3,286047000.4,N
1616341235.2,286047000.7,N
1616341255.9,286047000.8,N
1616341275.7,286047001.0,N
1616341295.6,286047000.5,N
1616341315.4,286046998.8,N
1616341335.2,286046998.4,N
1616341355.1,286046998.4,N
1616341356.0,286046998.4,N
1616341375.8,286046998.7,N
1616341395.6,286047000.9,N
1616341415.5,286047000.9,N
1616341435.3,286046998.6,N
1616341455.1,286046998.7,N
1616341475.8,286046999.5,N
1616341495.7,286047000.7,N
1616341515.5,286046998.1,N
1616341535.3,286047001.2,N
1616341555.2,286046998.7,N
1616341575.0,286046998.7,N
1616341575.9,286046998.7,N
1616341595.7,286046999.1,N
1616341615.6,286046998.5,N
1616341635.4,286046998.2,N
1616341655.2,286046999.0,N
1616341675.1,286046998.5,N
1616341676.0,286046998.5,N
1616341695.8,286046998.7,N
1616341715.6,286047001.2,N
1616341735.5,286047001.2,N
1616341755.3,286046999.3,N
1616341775.1,286046998.7,N
1616341795.9,286046998.6,N
1616341815.7,286047001.2,N
1616341835.5,286046998.2,N
1616341855.4,286046998.5,N
1616341875.2,286046998.6,N
1616341895.0,286046998.7,N
1616341895.9,286046998.7,N
1616341915.8,286046998.9,N
1616341935.6,286046998.6,N
1616341955.4,286046998.3,N
1616341975.3,286046998.4,N
1616341995.1,286046998.3,N
1616341996.0,286046998.3,N
1616342015.8,286046998.5,N
1616342035.7,286046996.5,P
1616342055.5,286047000.6,N
1616342075.3,286047000.2,N
1616342095.2,286047001.0,N
1616342115.0,286047000.1,N
1616342115.9,286047000.1,N
1616342135.7,286047000.3,N
1616342155.6,286047000.8,N
1616342175.4,286047000.9,N
1616342195.2,286047001.2,N
1616342215.1,286046999.7,N
1616342216.0,286046999.7,N
1616342235.8,286047001.2,N
1616342255.6,286046999.7,N
1616342275.5,286047000.3,N
1616342295.3,286047000.3,N
1616342315.1,286047000.8,N
1616342335.9,286047000.6,N
1616342355.7,286047000.3,N
1616342375.5,286046999.9,N
1616342395.4,286047000.2,N
